GFSSW_sfc_30mbdewp_231.txt.gz
Dewpoint
54 54 54 55 55 55 55 55 55 55 55 55 55 55 56 55 55 50 16 15 31 67 67 66 62 63 64 60 60 59 53 50 50 50 52 53 52 54 55 52 54 57 54 58 65
54 54 54 54 54 55 55 55 55 55 55 55 55 55 55 56 50 32 26 44 63 68 60 56 58 61 59 58 57 55 51 49 51 53 52 53 52 53 53 50 56 60 61 64 66
54 54 54 54 54 54 54 55 55 55 55 55 55 55 56 56 30 16 45 57 68 59 54 54 58 58 54 55 55 54 50 52 51 55 54 53 52 53 52 48 54 57 61 64 64
54 54 54 54 54 54 54 54 54 54 54 55 55 55 57 53 2 36 57 64 68 50 48 53 57 54 50 48 54 50 52 53 54 56 54 53 54 52 53 51 54 58 62 63 63
53 53 54 54 54 54 54 54 53 54 54 54 55 55 48 11 1 61 62 67 67 44 31 41 49 49 46 45 47 49 47 52 53 55 54 55 54 54 54 54 57 60 62 62 62
53 53 53 54 54 54 54 54 53 53 54 54 55 56 38 -7 23 55 61 52 53 38 30 29 42 48 47 43 39 46 46 44 51 52 54 53 53 54 55 57 60 60 61 61 62
53 53 53 53 53 53 54 54 53 54 54 54 55 55 32 0 40 50 37 32 43 34 29 31 41 48 47 42 38 34 29 30 35 47 51 52 51 53 55 57 59 59 60 61 62
54 53 53 53 53 53 53 53 54 56 55 55 56 52 11 19 33 36 39 36 36 33 32 34 42 46 44 40 32 29 28 29 37 45 50 50 45 52 54 56 58 58 59 61 62
54 53 53 53 53 53 53 53 54 55 55 56 50 44 21 37 34 36 30 22 27 29 32 40 37 39 33 33 32 28 28 35 39 47 48 49 45 51 54 54 56 58 59 60 61
55 53 53 53 53 53 53 53 55 54 54 54 49 36 33 30 33 19 30 20 14 15 24 31 33 33 32 33 35 30 26 25 34 30 48 47 47 53 54 54 55 56 58 59 60
55 53 52 53 53 52 51 41 31 26 37 26 25 29 30 31 32 21 18 15 8 19 25 29 33 33 33 33 29 29 28 27 28 27 31 47 46 52 54 53 54 55 55 57 58
55 53 52 52 52 51 48 33 33 34 26 25 29 32 32 33 19 13 9 9 7 15 17 29 30 33 32 31 30 29 29 28 28 24 33 38 44 51 53 53 54 54 54 54 55
55 53 52 52 51 42 38 36 39 33 23 20 22 21 19 28 17 14 8 12 8 10 12 28 25 31 30 27 27 26 28 28 26 23 47 47 43 49 52 54 54 54 54 54 54
54 52 52 51 39 42 35 39 38 32 15 10 13 16 22 21 10 18 10 11 9 11 11 19 10 17 28 30 28 27 26 24 21 22 29 44 31 48 51 52 53 53 54 54 55
54 51 51 50 46 37 37 39 31 23 3 13 13 16 13 7 5 6 8 10 9 9 9 10 9 15 18 17 29 25 25 21 19 20 33 28 31 39 51 51 52 52 53 54 54
51 51 50 48 47 42 42 36 27 17 9 13 10 8 7 7 6 4 5 7 9 7 7 7 8 10 16 12 20 20 20 19 24 21 18 21 23 28 44 48 50 52 53 54 54
50 50 50 46 32 41 38 30 20 13 15 12 11 9 11 11 8 5 3 4 2 4 4 5 4 6 8 5 15 16 12 15 16 17 22 23 29 23 35 45 48 49 52 54 54
49 49 49 47 46 43 32 27 18 16 12 13 13 15 15 17 17 12 6 5 14 4 3 -1 -3 3 8 5 7 10 10 10 11 15 18 29 22 21 35 39 45 50 52 54 55
48 42 43 44 47 45 29 21 15 15 12 13 15 15 16 18 17 15 16 15 16 19 5 1 1 12 13 12 10 16 9 12 10 17 14 18 27 30 32 32 41 45 49 52 53
42 41 39 45 45 31 26 21 16 17 14 15 14 16 15 18 17 16 17 18 19 22 19 14 5 8 10 13 12 17 19 12 17 12 12 17 20 21 24 27 43 43 46 50 52
39 35 38 39 34 29 22 20 18 18 18 16 15 16 18 18 19 17 18 20 26 21 22 14 10 9 9 12 11 15 17 20 18 19 12 14 15 25 30 47 50 51 51 48 49
39 33 40 37 27 28 26 24 21 18 20 20 20 19 19 22 23 19 20 24 27 22 19 24 15 11 11 16 17 18 20 18 13 19 20 20 15 34 48 56 57 52 53 54 50
39 40 42 31 24 22 23 22 23 20 21 20 20 23 27 25 24 25 25 27 28 32 24 22 19 12 12 15 20 19 19 20 20 21 22 16 17 41 56 61 61 60 61 57 57
42 31 30 29 28 24 23 22 21 24 23 27 23 24 27 26 28 26 25 26 27 31 34 27 23 19 8 15 20 18 18 19 19 18 19 18 22 40 55 59 60 62 62 63 64
42 35 32 26 27 26 27 23 21 21 24 27 25 26 24 24 26 26 26 26 26 29 26 22 21 25 22 21 20 19 18 17 19 22 20 25 34 41 57 58 59 61 61 61 62
40 35 36 33 31 28 25 24 22 22 23 24 24 26 27 25 24 25 24 25 26 24 25 24 23 26 18 21 22 19 18 17 37 44 43 45 40 58 58 58 57 57 58 59 60
45 42 37 32 32 26 25 23 22 24 26 27 25 25 24 25 26 25 26 26 26 23 24 25 24 22 16 24 23 14 29 41 44 45 45 42 49 55 55 55 55 56 57 58 60

GFSSW_sfc_30mbdewp_234.txt.gz
Dewpoint
55 55 55 55 55 55 55 55 55 55 55 55 56 56 56 56 55 45 17 24 35 68 67 61 62 63 63 59 59 58 51 44 45 43 47 51 50 51 51 48 49 53 48 54 59
54 55 55 55 55 55 55 55 55 55 55 55 55 56 56 56 45 23 29 45 60 69 56 54 57 61 57 55 55 53 47 45 47 49 47 50 50 51 48 49 53 53 54 58 60
54 54 54 55 55 55 55 55 55 55 54 54 55 55 56 56 34 26 43 56 68 66 49 46 55 56 51 51 52 51 46 48 50 51 50 49 50 51 48 46 52 53 57 59 60
54 54 54 54 54 54 54 55 55 55 55 54 55 55 56 47 3 37 56 69 68 53 46 48 54 52 49 47 51 49 51 51 51 54 51 49 50 50 50 49 53 54 58 59 59
55 54 54 54 54 54 54 54 54 54 54 54 55 55 49 19 5 52 58 67 57 44 38 42 50 47 46 45 48 48 46 50 51 53 52 52 51 51 51 53 54 56 58 57 57
56 55 54 53 54 54 54 54 54 54 54 54 55 55 37 0 23 49 50 54 42 32 29 36 37 42 46 43 43 44 39 39 44 51 52 52 51 52 53 55 56 57 57 57 57
56 56 54 53 53 54 54 54 54 55 56 54 55 50 25 9 41 45 45 41 38 26 21 22 29 45 46 42 39 37 33 32 33 43 48 51 49 50 54 56 57 56 56 57 57
56 56 55 54 53 53 53 53 54 56 55 55 56 43 6 18 31 37 32 27 33 31 28 26 35 42 45 40 36 44 38 33 37 36 44 48 43 50 55 56 56 55 55 57 57
55 56 55 53 53 53 53 53 55 55 55 56 49 37 15 35 29 30 28 27 27 27 34 30 40 40 42 38 37 34 37 35 39 43 44 45 43 50 54 55 56 55 55 56 57
55 55 55 53 53 53 53 53 56 56 54 50 42 35 24 23 27 29 28 18 15 22 30 32 35 34 34 37 35 36 36 38 38 38 43 44 44 49 52 53 55 56 56 55 56
55 55 54 53 53 52 50 43 36 32 34 24 17 26 26 25 28 21 24 18 13 18 16 31 29 24 27 33 34 36 35 34 34 28 38 41 41 47 51 51 52 55 57 55 54
55 55 54 52 52 51 48 30 32 33 23 23 23 26 26 26 12 12 17 9 8 12 19 25 23 26 31 32 32 33 33 30 29 24 29 33 37 43 49 50 51 53 55 55 53
55 55 53 52 51 47 37 34 36 33 22 15 18 20 20 24 11 9 11 7 6 11 17 16 18 32 31 30 29 31 33 32 30 26 33 35 35 38 45 49 51 53 54 54 53
55 55 52 51 44 37 34 38 35 33 12 10 16 18 19 18 11 12 9 8 9 10 14 17 22 30 29 26 27 25 31 31 31 29 27 36 31 39 42 47 50 52 53 53 53
55 53 51 50 42 34 37 36 31 27 -2 10 14 17 14 8 6 8 11 11 9 11 13 10 18 18 24 27 28 23 28 28 28 29 30 30 31 34 45 46 47 49 52 53 54
55 51 50 47 45 37 38 35 28 18 6 7 12 12 7 5 4 6 7 10 9 8 9 8 9 16 18 20 23 22 24 23 24 25 24 29 31 31 33 40 45 46 50 52 53
52 50 49 44 33 38 38 31 19 10 15 7 6 5 3 4 5 3 4 5 3 4 2 3 4 4 9 13 16 18 17 12 14 17 20 24 25 30 28 34 39 44 48 51 53
49 49 49 44 42 41 34 26 16 14 11 13 10 4 5 8 11 4 4 4 5 4 2 -1 -3 3 5 6 8 10 10 6 7 9 14 24 24 26 29 29 29 33 45 49 52
48 42 42 42 43 42 30 19 15 14 13 12 12 7 10 13 11 8 9 9 14 15 7 -0 -3 3 6 6 8 9 10 8 8 10 13 18 22 24 30 27 27 36 41 47 50
41 40 38 42 41 34 25 18 16 15 13 15 12 15 12 15 10 8 11 18 17 19 17 9 6 5 9 10 11 13 13 8 8 7 6 8 15 18 23 26 27 35 36 43 48
40 34 39 37 36 28 18 17 17 17 17 15 15 16 18 17 14 14 16 21 22 19 18 12 9 6 7 8 6 10 9 11 8 7 5 8 12 17 24 40 45 46 46 46 45
39 30 40 38 27 26 20 22 19 17 19 18 19 18 18 21 19 18 18 22 25 22 17 21 10 7 6 15 15 13 14 15 9 13 13 12 16 42 48 52 54 54 55 55 53
38 38 39 34 23 21 24 20 20 17 20 18 18 21 23 23 22 22 22 24 27 26 23 21 11 9 9 12 18 14 16 17 17 17 16 12 12 46 56 58 59 59 60 60 56
41 32 32 31 28 24 21 19 19 22 22 23 21 23 22 21 26 24 22 23 25 28 30 27 18 15 10 16 17 16 15 17 16 11 8 12 21 44 53 58 59 61 61 62 63
39 33 34 28 25 24 24 20 18 19 24 25 24 22 21 21 19 21 24 23 23 28 26 22 19 23 19 19 17 15 15 14 15 17 18 20 21 34 56 57 58 60 61 61 62
39 35 35 31 31 27 25 23 19 23 23 23 23 23 23 21 20 20 22 23 24 24 24 22 23 23 19 17 17 16 14 14 13 17 28 27 31 52 56 57 57 57 59 60 61
44 43 37 31 29 26 23 25 23 24 25 26 24 22 22 25 25 24 24 24 25 24 24 23 21 21 15 18 18 16 15 13 18 26 30 23 43 51 55 55 56 57 58 59 60

GFSSW_sfc_30mbdewp_237.txt.gz
Dewpoint
55 55 55 56 56 56 56 55 55 56 56 56 56 56 56 57 56 48 23 28 40 62 69 55 56 60 59 57 56 55 54 45 38 39 43 44 45 46 45 45 45 47 49 53 55
56 55 55 55 55 56 55 55 55 55 56 56 55 56 56 57 45 23 35 35 58 66 60 50 53 58 57 54 53 52 52 45 43 41 42 43 44 44 44 48 50 48 52 54 54
56 56 54 55 55 55 55 55 55 55 55 55 55 56 56 56 36 31 46 45 62 67 53 45 50 55 53 51 51 54 52 41 41 42 42 44 44 44 43 46 48 48 52 54 54
56 56 55 54 54 55 55 55 55 55 55 55 55 56 56 46 16 44 50 58 66 58 49 40 45 50 50 47 49 48 45 44 44 45 43 44 45 43 45 46 50 51 53 53 54
57 57 56 54 54 54 54 55 55 55 55 55 55 56 52 28 11 49 62 67 56 52 40 37 45 49 46 46 48 50 46 48 48 46 44 45 45 45 46 50 52 52 53 53 53
56 56 56 55 54 54 54 54 54 55 55 55 55 56 45 11 21 38 47 55 42 37 33 34 37 44 44 44 46 49 42 42 48 48 48 45 46 48 50 52 53 53 53 52 52
56 56 56 56 54 54 54 54 54 55 56 57 55 52 27 18 29 39 41 42 31 25 21 24 30 33 44 43 41 42 40 40 40 46 46 50 46 51 51 54 54 52 53 52 52
56 56 55 55 54 53 53 54 54 56 55 55 55 48 15 18 33 37 33 32 30 23 19 21 20 32 42 43 41 47 42 40 44 41 46 48 48 49 51 53 54 53 53 53 53
56 56 55 55 54 54 53 53 55 56 55 55 52 43 12 23 26 29 23 21 23 23 23 26 20 33 39 40 39 43 41 38 39 38 40 46 49 50 51 53 54 54 53 53 53
56 56 55 55 54 53 53 53 56 55 54 48 38 32 20 12 25 24 24 22 20 20 22 17 22 28 33 34 33 36 38 38 40 40 41 48 52 52 50 52 53 53 54 54 53
57 56 55 54 53 53 51 43 39 38 38 27 8 25 15 23 23 24 22 15 13 19 14 17 19 19 24 30 33 37 37 42 42 41 39 41 49 44 48 50 53 53 54 53 52
57 55 55 53 52 52 48 32 29 30 22 16 15 23 21 18 15 14 18 13 11 12 13 19 18 18 19 23 30 36 36 45 44 35 34 40 41 42 44 46 50 52 52 52 51
57 55 55 52 51 48 35 31 32 29 24 13 9 17 16 16 8 10 11 10 6 8 11 15 13 19 23 27 29 32 31 32 32 33 33 34 35 42 43 45 47 49 51 52 50
56 56 53 51 45 32 31 34 31 30 19 8 11 16 15 17 9 9 8 5 4 3 12 14 16 22 27 25 25 23 28 34 33 30 29 34 34 36 38 42 45 48 50 51 50
56 55 52 51 43 30 34 32 29 27 12 7 12 16 14 12 11 10 9 7 6 5 9 10 18 21 24 22 20 19 24 30 32 32 30 33 31 37 40 39 41 44 49 50 51
56 54 50 48 44 34 33 31 27 15 10 7 12 10 8 6 2 5 7 10 10 7 12 10 12 17 17 20 22 22 23 26 27 28 27 31 29 29 37 40 41 43 46 50 51
54 51 49 44 34 32 33 29 17 11 10 5 7 5 1 -1 1 3 4 5 3 6 5 6 6 9 13 15 18 20 17 17 17 17 17 21 25 28 34 34 38 43 44 49 50
52 49 48 42 38 36 34 24 17 11 10 4 4 2 -1 1 1 1 3 2 5 3 3 -1 -0 3 4 11 13 14 10 7 7 8 10 16 17 22 28 31 33 33 44 46 50
49 42 39 38 38 37 31 18 16 14 10 7 3 -2 2 3 6 1 2 2 3 6 7 2 2 2 3 3 6 8 8 8 5 4 6 9 15 22 26 30 29 30 33 43 47
42 35 36 36 37 34 27 20 18 14 11 8 3 1 5 4 6 2 4 10 10 10 13 9 6 3 0 4 4 5 11 5 4 4 6 7 15 20 22 28 30 28 33 41 46
42 33 37 34 35 29 21 17 17 15 14 10 8 10 10 6 5 3 6 15 16 11 9 7 5 6 6 4 2 4 10 12 4 3 4 6 6 14 23 33 29 29 37 37 39
36 30 37 35 28 21 18 20 17 15 16 15 16 13 14 15 11 9 13 19 22 19 9 9 8 8 6 9 11 10 6 3 7 9 6 2 20 31 36 45 48 49 54 54 53
35 33 37 33 25 23 19 20 17 15 17 16 15 17 20 17 17 17 20 22 24 19 21 17 5 6 10 10 10 7 8 13 11 10 9 9 19 46 50 51 56 56 58 60 57
38 33 33 31 28 27 22 19 17 19 19 19 19 19 19 19 23 21 21 21 23 24 26 24 11 11 8 16 14 8 12 12 11 11 13 14 16 49 54 56 58 60 60 61 63
39 35 35 31 28 25 23 19 16 17 19 22 22 20 19 19 18 20 20 22 21 25 25 19 14 14 14 17 14 13 13 11 11 11 10 10 14 48 54 56 58 59 60 60 61
38 38 36 32 31 29 25 23 18 16 20 20 21 20 21 21 21 19 20 22 21 22 22 19 17 21 20 14 14 12 11 11 11 11 12 17 21 47 52 53 56 58 59 59 60
42 42 36 33 30 29 25 23 23 20 23 23 21 23 21 22 22 22 22 23 25 25 23 21 18 21 18 15 13 11 11 11 11 12 11 14 31 44 48 53 56 57 58 58 60

GFSSW_sfc_30mbdewp_240.txt.gz
Dewpoint
57 56 56 55 56 56 56 56 56 56 56 56 56 56 57 57 56 49 31 32 42 57 65 56 59 57 59 57 55 58 55 44 41 39 42 41 42 43 43 43 44 50 50 52 54
57 57 56 55 55 55 56 56 56 56 56 56 56 56 57 57 48 30 34 39 55 60 58 55 49 55 56 55 55 53 57 50 40 40 40 42 41 40 42 45 46 49 51 52 53
57 57 57 56 55 55 55 56 56 56 56 56 56 56 57 56 42 31 45 41 51 60 53 50 47 53 55 54 59 61 57 52 39 40 42 42 41 42 44 43 46 49 50 51 51
57 57 57 57 55 55 55 55 55 56 56 56 56 56 56 49 25 48 45 41 53 53 52 49 40 46 50 54 54 53 54 54 43 40 41 41 42 40 44 45 47 50 50 51 51
56 56 56 56 56 55 55 55 55 55 55 56 56 56 47 42 25 50 53 52 49 55 50 41 36 45 52 51 56 55 55 48 41 41 44 42 42 45 46 47 49 50 51 51 51
57 56 56 56 56 55 55 55 55 55 56 56 56 55 41 31 23 39 39 43 42 45 38 34 37 43 43 45 50 52 50 45 48 47 45 45 44 45 47 48 49 50 50 51 51
57 56 56 56 56 55 55 54 54 55 56 57 57 46 40 25 24 34 42 43 43 33 28 30 32 32 41 42 49 50 45 39 46 47 43 49 46 49 49 50 50 50 50 50 50
58 57 56 56 56 55 54 54 54 55 57 55 56 40 30 18 29 35 35 35 32 24 20 18 21 24 30 41 42 42 42 39 44 46 49 48 50 50 50 50 49 50 50 50 50
58 57 56 55 55 55 53 54 54 57 56 55 50 40 28 21 27 32 31 29 29 22 20 21 22 20 31 39 39 43 41 41 41 41 48 47 52 54 55 50 50 49 50 51 51
58 57 56 55 55 54 53 52 53 54 54 47 40 32 27 10 19 26 21 19 18 18 17 19 18 16 26 34 34 36 41 41 40 41 46 50 53 57 57 54 50 49 50 51 51
57 57 55 55 54 53 50 44 41 40 39 31 16 25 14 14 24 22 21 21 18 16 14 12 8 12 20 30 31 36 39 38 41 42 48 51 49 51 56 58 49 51 51 50 51
57 57 56 55 53 52 49 39 26 27 22 27 18 16 20 22 19 21 21 14 11 11 15 11 7 12 18 23 27 32 42 40 43 42 43 47 50 53 54 54 53 51 51 50 50
56 57 56 55 51 48 36 32 28 25 21 18 7 11 19 17 12 13 17 12 10 10 10 12 11 12 15 17 20 27 34 41 40 39 37 39 42 43 47 50 53 53 51 50 49
55 56 55 52 43 36 28 32 27 25 23 11 3 12 12 13 9 11 12 11 7 5 8 9 12 12 15 16 24 24 32 39 39 33 32 36 34 41 42 44 50 52 50 49 50
55 55 55 52 43 32 33 27 27 23 19 8 4 14 12 10 9 7 8 7 4 4 4 10 12 14 17 23 24 24 23 32 37 35 29 33 33 38 40 41 42 45 48 50 50
55 55 53 47 46 36 30 28 25 15 14 7 11 12 10 11 8 9 6 8 8 8 6 8 11 16 18 21 21 18 18 25 26 29 26 30 31 34 37 39 41 42 46 48 51
56 54 51 44 36 30 29 27 19 13 11 7 9 8 8 6 3 4 5 5 7 8 6 10 10 12 16 17 18 18 19 20 22 21 21 23 27 28 34 39 44 46 44 47 51
54 52 45 42 37 32 31 25 21 19 13 9 7 5 1 0 -0 1 2 2 6 5 7 7 5 7 9 13 15 19 18 14 15 13 14 18 17 25 32 35 44 46 47 46 49
52 39 40 42 36 34 29 22 20 19 16 8 4 2 -2 -1 1 1 2 2 2 5 5 7 2 6 5 6 12 14 11 12 6 6 6 7 14 17 30 31 40 41 48 50 55
49 37 35 33 32 29 26 25 24 19 12 9 4 1 -1 1 4 2 1 4 4 8 11 13 4 3 3 3 4 9 10 7 7 6 7 5 7 13 25 28 29 31 46 54 54
46 37 35 32 30 27 23 21 20 18 16 9 7 3 1 5 5 4 2 9 10 9 7 7 8 7 3 2 2 1 4 9 6 2 4 5 8 18 31 33 29 30 40 51 51
41 32 37 34 26 23 20 21 20 17 12 11 13 13 9 9 5 4 5 15 20 16 13 4 6 6 5 7 6 4 3 8 9 9 2 2 24 36 37 47 48 53 57 59 57
41 37 37 36 28 24 24 20 19 17 14 11 13 15 15 14 12 8 20 21 19 16 23 26 7 7 8 8 9 8 10 5 4 7 9 5 20 45 52 57 57 57 59 60 64
40 34 34 34 30 26 26 27 20 16 16 16 15 14 16 17 17 15 19 20 21 22 28 24 18 14 10 15 15 8 9 9 11 7 6 8 45 56 56 56 59 60 60 61 62
41 34 36 34 32 30 27 26 24 19 17 19 19 18 16 17 19 20 20 20 20 25 22 16 13 15 13 14 17 14 8 9 11 12 12 19 48 53 53 54 57 59 60 61 61
44 38 40 38 36 35 32 28 25 20 18 17 19 20 19 17 18 17 19 21 21 23 21 18 19 17 17 17 14 14 12 13 11 11 11 13 43 50 49 53 54 57 59 59 60
46 45 41 39 36 33 31 30 26 25 19 18 19 20 18 20 22 22 21 21 22 22 24 22 18 17 14 17 19 13 14 11 12 11 11 11 39 42 49 54 54 55 58 59 59